Regional Weather Roundup
Issued by NWS

Home | Current Version | Previous Version | Graphics & Text | Print | Product List | Glossary On
Versions: 1 2 3 4 5 6 7 8 9 10 11 12 13 14 15 16 17 18 19 20 21 22 23 24 25 26 27 28 29 30 31 32 33 34 35 36 37 38 39 40 41 42 43 44 45 46 47 48 49 50
000
ASUS43 KDTX 211610
RWRMI
MICHIGAN HOURLY REGIONAL WEATHER ROUNDUP
NATIONAL WEATHER SERVICE DETROIT/PONTIAC MI
1100 AM EST TUE NOV 21 2017

NOTE: "FAIR" INDICATES FEW OR NO CLOUDS BELOW 12,000 FEET WITH NO
SIGNIFICANT WEATHER AND/OR OBSTRUCTION TO VISIBILITY.

MIZ047>049-052>055-059>063-066>070-074>076-081>083-211700-
SOUTHEAST LOWER MICHIGAN

CITY           SKY/WX    TMP DP  RH WIND       PRES   REMARKS
ADRIAN         SUNNY     45  30  55 SW15G23   29.77R
ALMA           CLOUDY    47  36  67 SW12G20   29.66R
ANN ARBOR      SUNNY     46  31  55 SW18G30   29.73R
BAD AXE        CLOUDY    46  32  58 SW17G26   29.62S
CARO           MOSUNNY   48  33  54 SW22G29   29.64R
DETROIT CITY   SUNNY    N/A N/A N/A SW20G30   29.73R
DETROIT        PTSUNNY   47  30  51 SW22G28   29.75R
FLINT          SUNNY     47  31  53 SW20G30   29.68R
GROSSE ILE     SUNNY     48  30  51 SW18      29.74R
HILLSDALE      SUNNY     46  30  53 SW14G26   29.74R
HOWELL         SUNNY     48  32  55 SW13G26   29.69R

CITY           SKY/WX    TMP DP  RH WIND       PRES   REMARKS
JACKSON        SUNNY     47  30  51 SW24      29.71R
LAMBERTVILLE   CLOUDY    49  30  47 SW13G22   29.77R
LANSING        SUNNY     47  33  58 SW17G30   29.70R
LAPEER         FAIR      47  30  52 W15G23    29.67R
MASON          MOSUNNY   47  32  54 SW17      29.71R
MONROE         SUNNY     48  30  49 SW22G32   29.75R
MT. CLEMENS    PTSUNNY   47  31  53 SW21G28   29.70R
PONTIAC        PTSUNNY   45  30  55 SW12G25   29.68R
PORT HOPE        N/A     46  32  58 SW14G29   29.59R
PORT HURON     SUNNY     46  28  49 SW13G21   29.69F
TRI CITIES     MOSUNNY   47  36  65 SW22G30   29.63R
MIDLAND        FAIR      49  36  61 SW13G21   29.61R
TROY           SUNNY     47  29  48 SW15G24   29.73R
SAGINAW HB     MOSUNNY   45  34  65 SW15G26   29.63R
$$
MIZ043>046-050>051-056>058-064>065-071>073-077>080-211700-
SOUTHWEST LOWER MICHIGAN

CITY           SKY/WX    TMP DP  RH WIND       PRES   REMARKS
BATTLE CREEK   MOSUNNY   48  33  56 SW20      29.72R
BENTON HARBOR  CLOUDY    46  34  62 W18G28    29.77R
BIG RAPIDS     CLOUDY    45  29  53 W17G25    29.63R
COLDWATER      MOSUNNY   46  29  52 SW21G28   29.75R
FREMONT        CLOUDY    45  32  60 W13G23    29.68R
HOLLAND        CLOUDY    47  38  71 W16       29.73R
GRAND RAPIDS   LGT RAIN  46  40  79 W24G31    29.70R
IONIA          FAIR      47  35  62 SW15G24   29.68R
KALAMAZOO      MOSUNNY   47  30  51 SW17G24   29.73R
LUDINGTON      CLOUDY    41  25  53 NW15      29.68R
MARSHALL       MOSUNNY   45  30  56 SW14G22   29.72R
MOUNT PLEASANT PTSUNNY   49  33  55 W17G25    29.62R
MUSKEGON       LGT RAIN  46  31  55 W18G28    29.71R
SOUTH HAVEN    CLOUDY    46  37  70 SW16G23   29.76R
$$
MIZ016>042-211700-
NORTHERN LOWER MICHIGAN

CITY           SKY/WX    TMP DP  RH WIND       PRES   REMARKS
ALPENA         CLOUDY    48  34  58 SW15G24   29.52R
BEAVER ISLAND  CLOUDY    37  25  60 W17G30    29.59R WCI  28
BELLAIRE       CLOUDY    42  29  60 NW9G24    29.61R
CADILLAC       MOSUNNY   42  24  50 W14G23    29.60R
CHARLEVOIX     CLOUDY    40  27  59 W20G29    29.62R WCI  31
FRANKFORT      CLOUDY    42  27  54 W16G24    29.65R
GAYLORD        CLOUDY    40  24  53 W16G26    29.55R WCI  31
GRAYLING       MOSUNNY   42  18  39 W18G26    29.58R
HARBOR SPRINGS CLOUDY    40  24  51 W16G25    29.56R WCI  32
MANISTEE       PTSUNNY   41  26  55 W20       29.66R
OSCODA         MOSUNNY   47  32  56 SW22G30   29.56R
PELLSTON       CLOUDY    40  26  57 W20G30    29.55R WCI  30
ROGERS CITY    PTSUNNY   45  28  52 W14G23    29.52R
TRAVERSE CITY  CLOUDY    42  24  49 W22G31    29.62R
$$
MIZ007>008-015-211700-
EASTERN UPPER MICHIGAN

CITY           SKY/WX    TMP DP  RH WIND       PRES   REMARKS
KINROSS        CLOUDY    35  23  61 W21G33    29.53R WCI  24
MACKINAC ISLAN CLOUDY    38  24  56 NW17G31   29.54R WCI  29
NEWBERRY       CLOUDY    32  25  75 W17G28    29.54R WCI  21
S. S. MARIE    CLOUDY    37  24  59 W21G36    29.50R WCI  26
MUNISING         N/A     33  23  66 NW22G33   29.60R WCI  21
$$
MIZ004>006-011>014-085-211700-
CENTRAL UPPER MICHIGAN

CITY           SKY/WX    TMP DP  RH WIND       PRES   REMARKS
MANISTIQUE     CLOUDY    32  12  43 NW18G25   29.60R WCI  20
ESCANABA       CLOUDY    33  20  58 W20G31    29.65R WCI  21
MENOMINEE      PTSUNNY   34  17  50 NW8G18    29.69R WCI  27
SAWYER-GWINN   FLURRIES  28  19  69 W21G28    29.60R WCI  15
$$
MIZ001>003-009>011-084-211700-
WESTERN UPPER MICHIGAN

CITY           SKY/WX    TMP DP  RH WIND       PRES   REMARKS
IRON MOUNTAIN  FLURRIES  29  13  51 W16G31    29.66R WCI  17
HOUGHTON       HVY SNOW  22  16  78 NW25G35   29.66R VSB 1/4 WCI   5
COPPER HARBOR    N/A     27  21  78 N30G45    29.63R WCI  11
IRONWOOD       LGT SNOW  22  16  78 NW21G30   29.79R WCI   6
$$

ABBREVIATIONS USED IN REMARKS
   TC - TEMPERATURE IN CELSIUS
  WCI - WIND CHILL INDEX
   HX - HEAT INDEX
  VSB - VISIBILITY





USA.gov is the U.S. government's official web portal to all federal, state and local government web resources and services.